{"data":{"norad_id":42432,"epoch":"2026-05-24T23:22:38.556768Z","epoch_age_seconds":87447,"freshness":"FRESH","line1":"1 42432U 17017A   26144.97405737 -.00000276  00000+0  00000+0 0  9994","line2":"2 42432   0.0268  39.9707 0002787  31.0336  95.3336  1.00271889 33526","mean_motion":1.00271889,"eccentricity":0.0002787,"inclination_deg":0.0268,"raan_deg":39.9707,"arg_perigee_deg":31.0336,"mean_anomaly_deg":95.3336,"bstar":0,"rev_number":3352,"period_min":1436.0954145384,"perigee_km":35774.814503568,"apogee_km":35798.317108913,"semimajor_km":42164.702806241,"source":"CELESTRAK","updated_at":"2026-05-25T13:38:14.512126Z"}}